Hancock, MI

11:46 PM EDT on September 30, 2016 (GMT -0400)
Houghton County Memorial

Weather History for KCMX - May, 2013

Change the Weather History Date:

Monday, May 20, 2013

  Actual Average Record
Temperature  
Mean Temperature 46 °F -  
Max Temperature 48 °F 62 °F 85 °F (1992)
Min Temperature 44 °F 42 °F 27 °F (2002)
Degree Days  
Heating Degree Days 19    
Moisture  
Dew Point 46 °F    
Average Humidity 97    
Maximum Humidity 100    
Minimum Humidity 93    
Precipitation  
Precipitation 0.52 in - - ()
Sea Level Pressure  
Sea Level Pressure 29.77 in    
Wind  
Wind Speed 19 mph (East)    
Max Wind Speed 24 mph    
Max Gust Speed 36 mph    
Visibility 4 miles    
Events Fog , Rain , Thunderstorm    
Averages and records for this station are not official NWS values.
T = Trace of Precipitation, MM = Missing Value Source: NWS Daily Summary

Daily Weather History Graph

Daily Weather History Graph

Search for Another Location

Airport or City:

Trip Planner

Search our weather history database for the weather conditions in past years. The results will help you decide how hot, cold, wet, or windy it might be!

Date:

Astronomy

May. 20, 2013 Rise Set
Actual Time 6:12 AM EDT 9:29 PM EDT
Civil Twilight 5:35 AM EDT 10:06 PM EDT
Nautical Twilight 4:46 AM EDT 10:55 PM EDT
Astronomical Twilight 3:45 AM EDT 11:57 PM EDT
Moon 4:19 PM EDT (5/20) 3:27 AM EDT (5/20)
Length of Visible Light 16h 31m
Length of Day
15h 17m
Waxing Gibbous, 75% of the Moon is Illuminated
May 20
Waxing Gibbous
May 25
Full
May 31
Last Quarter
Jun 8
New
Jun 16
First Quarter

Hourly Weather History & Observations

Time (EDT) Temp. Windchill Dew Point Humidity Pressure Visibility Wind Dir Wind Speed Gust Speed Precip Events Conditions
12:53 AM 48.0 °F - 46.0 °F 93% 29.87 in 9.0 mi East 18.4 mph 27.6 mph N/A   Overcast
1:02 AM 48.2 °F - 46.4 °F 93% 29.86 in 10.0 mi East 17.3 mph 27.6 mph N/A   Overcast
1:27 AM 46.4 °F 39.8 °F 44.6 °F 93% 29.86 in 10.0 mi East 16.1 mph 26.5 mph N/A   Overcast
1:53 AM 46.9 °F - 45.0 °F 93% 29.87 in 10.0 mi East 18.4 mph 26.5 mph N/A   Overcast
2:53 AM 46.9 °F - 45.0 °F 93% 29.86 in 10.0 mi East 18.4 mph 28.8 mph N/A   Overcast
3:53 AM 46.4 °F 39.2 °F 46.4 °F 100% 29.84 in 10.0 mi East 18.4 mph 25.3 mph N/A   Overcast
4:53 AM 46.9 °F - 45.0 °F 93% 29.83 in 10.0 mi East 18.4 mph 24.2 mph N/A   Overcast
5:53 AM 46.4 °F 39.2 °F 44.6 °F 93% 29.80 in 10.0 mi East 18.4 mph 29.9 mph N/A   Overcast
6:53 AM 45.0 °F 36.9 °F 43.0 °F 93% 29.78 in 10.0 mi East 20.7 mph 29.9 mph N/A   Overcast
7:53 AM 46.0 °F 37.6 °F 44.1 °F 93% 29.75 in 10.0 mi East 24.2 mph 35.7 mph N/A   Overcast
8:53 AM 45.0 °F 37.9 °F 44.1 °F 97% 29.79 in 6.0 mi East 16.1 mph 29.9 mph N/A   Overcast
9:08 AM 44.6 °F 36.4 °F 44.6 °F 100% 29.75 in 1.8 mi East 20.7 mph 32.2 mph N/A   Overcast
9:53 AM 45.0 °F 36.6 °F 44.1 °F 97% 29.78 in 1.5 mi East 21.9 mph 31.1 mph N/A   Overcast
10:07 AM 46.4 °F 38.7 °F 44.6 °F 93% 29.77 in 2.5 mi East 20.7 mph 26.5 mph N/A   Overcast
10:16 AM 46.4 °F 39.5 °F 44.6 °F 93% 29.77 in 4.0 mi East 17.3 mph 26.5 mph N/A   Overcast
10:53 AM 46.9 °F - 46.0 °F 97% 29.80 in 6.0 mi East 21.9 mph 31.1 mph N/A   Overcast
11:48 AM 48.2 °F - 46.4 °F 93% 29.76 in 2.0 mi East 18.4 mph 31.1 mph N/A   Overcast
11:53 AM 48.0 °F - 46.0 °F 93% 29.78 in 2.0 mi East 17.3 mph 26.5 mph N/A   Overcast
12:18 PM 48.2 °F - 46.4 °F 93% 29.75 in 1.0 mi East 18.4 mph 28.8 mph N/A   Overcast
12:25 PM 46.4 °F 39.5 °F 46.4 °F 100% 29.75 in 0.8 mi East 17.3 mph 26.5 mph N/A   Overcast
12:40 PM 46.4 °F 39.5 °F 46.4 °F 100% 29.75 in 0.2 mi East 17.3 mph 26.5 mph N/A Fog Fog
12:53 PM 46.9 °F - 46.9 °F 100% 29.77 in 0.2 mi East 18.4 mph 27.6 mph N/A Fog Fog
1:53 PM 46.9 °F - 46.9 °F 100% 29.74 in 0.2 mi East 18.4 mph 27.6 mph 0.00 in Fog , Rain Light Rain
2:53 PM 48.9 °F - 48.0 °F 97% 29.76 in 0.2 mi East 17.3 mph 25.3 mph 0.01 in Fog Fog
3:53 PM 48.0 °F - 48.0 °F 100% 29.75 in 0.2 mi East 21.9 mph 31.1 mph N/A Fog Fog
4:53 PM 48.9 °F - 48.9 °F 100% 29.75 in 0.2 mi East 16.1 mph 29.9 mph N/A Fog Fog
5:53 PM 48.9 °F - 48.9 °F 100% 29.75 in 0.2 mi East 19.6 mph 28.8 mph N/A Fog Fog
6:53 PM 48.0 °F - 46.9 °F 96% 29.74 in 0.2 mi East 16.1 mph 24.2 mph N/A Fog Fog
7:53 PM 45.0 °F 36.9 °F 45.0 °F 100% 29.75 in 0.2 mi East 20.7 mph 27.6 mph N/A Fog Fog
8:53 PM 46.0 °F 39.0 °F 46.0 °F 100% 29.75 in 0.2 mi East 17.3 mph 27.6 mph N/A Fog Fog
9:20 PM 44.6 °F 36.6 °F 44.6 °F 100% 29.75 in 0.2 mi ESE 19.6 mph 25.3 mph 0.06 in Fog , Rain , Thunderstorm Heavy Rain
9:31 PM 44.6 °F 36.1 °F 44.6 °F 100% 29.71 in 0.5 mi East 21.9 mph 31.1 mph 0.12 in Fog , Rain , Thunderstorm Rain
9:38 PM 46.4 °F 39.2 °F 44.6 °F 93% 29.70 in 0.2 mi East 18.4 mph 31.1 mph 0.12 in Fog , Rain , Thunderstorm Light Rain
9:51 PM 46.4 °F 39.2 °F 46.4 °F 100% 29.71 in 0.5 mi East 18.4 mph 27.6 mph 0.12 in Fog , Thunderstorm Fog
9:53 PM 46.0 °F 39.0 °F 45.0 °F 96% 29.74 in 0.5 mi East 17.3 mph 27.6 mph 0.12 in Fog , Thunderstorm Fog
10:07 PM 44.6 °F 36.4 °F 44.6 °F 100% 29.74 in 0.5 mi East 20.7 mph 29.9 mph 0.22 in Fog , Rain , Thunderstorm Heavy Thunderstorms and Rain
10:19 PM 44.6 °F 37.2 °F 44.6 °F 100% 29.74 in 2.5 mi East 17.3 mph 33.4 mph 0.37 in Rain , Thunderstorm Rain
10:26 PM 44.6 °F 37.4 °F 44.6 °F 100% 29.74 in 8.0 mi ENE 16.1 mph 25.3 mph 0.37 in Rain , Thunderstorm Light Rain
10:46 PM 44.6 °F 37.2 °F 44.6 °F 100% 29.75 in 10.0 mi ENE 17.3 mph 24.2 mph 0.37 in   Overcast
10:53 PM 45.0 °F 37.9 °F 44.1 °F 97% 29.77 in 10.0 mi ENE 16.1 mph 24.2 mph 0.37 in   Overcast
11:49 PM 44.6 °F 37.2 °F 44.6 °F 100% 29.75 in 1.8 mi East 17.3 mph 29.9 mph 0.02 in   Overcast
11:53 PM 46.0 °F 38.5 °F 45.0 °F 96% 29.78 in 1.5 mi East 19.6 mph 27.6 mph 0.02 in   Overcast